{"data":{"norad_id":59352,"intl_designator":"2024-060E","name":"STARLINK-31561","alt_names":[],"object_type":"PAYLOAD","status":"ACTIVE","operator":null,"country":"US","launch_date":"2024-03-31","launch_site_code":"AFETR","launch_vehicle":null,"mission":null,"orbit_class":"UNKNOWN","rcs_meters":null,"size_class":null,"mass_kg":null,"dimensions":null,"purposes":["comms"],"wikipedia_slug":null,"has_3d_model":false,"image_url":null,"decayed_at":null,"tle_current":{"epoch":"2026-05-25T03:57:51.234048Z","epoch_age_seconds":60069,"freshness":"FRESH","line1":"1 59352U 24060E   26145.16517632  .00001491  00000+0  63696-4 0  9993","line2":"2 59352  43.0019 187.5486 0001216 279.3320  80.7394 15.27576798121763","mean_motion":15.27576798,"eccentricity":0.0001216,"inclination_deg":43.0019,"raan_deg":187.5486,"arg_perigee_deg":279.332,"mean_anomaly_deg":80.7394,"bstar":6.3696e-5,"rev_number":12176,"period_min":94.266946309039,"perigee_km":482.22436260114,"apogee_km":483.89300539149,"semimajor_km":6861.1956839963,"source":"CELESTRAK","updated_at":"2026-05-25T13:38:18.908956Z"}}}